,,PA_Meas_PMT16A,,PR_Meas_QMR101_102,,RH_Meas_QMH101,,SR_Meas_QMS101,,TA_Meas_QMH101,,GenWind,,GenWind,
time,status,PA,status,PR,status,RH,status,SR,status,TA,status,DirAvg,status,SpdAvg,
2016-12-27, 14:40:04,VALID,916.687,VALID,0,INVALID,119.444,VALID,142.36,VALID,19.1958,VALID,145,VALID,1.13711,
2016-12-27, 14:41:04,VALID,916.661,VALID,0,INVALID,119.36,VALID,144.831,VALID,19.3143,VALID,153,VALID,1.07734,
2016-12-27, 14:42:04,VALID,916.706,VALID,0,INVALID,119.451,VALID,147.409,VALID,19.2948,VALID,144,VALID,1.79453,
2016-12-27, 14:43:04,VALID,916.677,VALID,0,INVALID,119.665,VALID,148.699,VALID,19.2753,VALID,150,VALID,1.78555,
2016-12-27, 14:44:04,VALID,916.696,VALID,0,INVALID,119.634,VALID,152.352,VALID,19.3338,VALID,148,VALID,1.74805,
2016-12-27, 14:45:04,VALID,916.693,VALID,0,INVALID,119.65,VALID,154.178,VALID,19.3908,VALID,155,VALID,1.33008,
2016-12-27, 14:46:04,VALID,916.703,VALID,0,INVALID,119.65,VALID,153.856,VALID,19.4493,VALID,135,VALID,1.18711,
2016-12-27, 14:47:04,VALID,916.723,VALID,0,INVALID,119.688,VALID,153.104,VALID,19.5078,VALID,135,VALID,1.28242,
2016-12-27, 14:48:04,VALID,916.771,VALID,0,INVALID,119.764,VALID,153.104,VALID,19.5468,VALID,133,VALID,1.32109,
2016-12-27, 14:49:04,VALID,916.776,VALID,0,INVALID,119.977,VALID,154.5,VALID,19.5078,VALID,156,VALID,1.52461,
2016-12-27, 14:50:04,VALID,916.806,VALID,0,INVALID,119.939,VALID,156.864,VALID,19.6053,VALID,157,VALID,1.00664,
2016-12-27, 14:51:04,VALID,916.874,VALID,0,INVALID,120.115,VALID,158.583,VALID,19.6053,VALID,160,VALID,0.885938,
2016-12-27, 14:52:04,VALID,916.87,VALID,0,INVALID,120.13,VALID,161.484,VALID,19.6638,VALID,140,VALID,1.09258,
2016-12-27, 14:53:04,VALID,916.896,VALID,0,INVALID,120.519,VALID,169.22,VALID,19.6053,VALID,146,VALID,1.8625,
2016-12-27, 14:54:04,VALID,916.88,VALID,0,INVALID,120.709,VALID,176.633,VALID,19.6053,VALID,149,VALID,1.74414,
2016-12-27, 14:55:04,VALID,916.91,VALID,0,INVALID,120.724,VALID,179.749,VALID,19.6848,VALID,155,VALID,1.44766,
2016-12-27, 14:56:04,VALID,916.965,VALID,0,INVALID,120.763,VALID,184.369,VALID,19.7433,VALID,140,VALID,1.43398,
2016-12-27, 14:57:04,VALID,916.973,VALID,0,INVALID,121.09,VALID,190.386,VALID,19.7238,VALID,152,VALID,1.48633,
2016-12-27, 14:58:04,VALID,916.98,VALID,0,INVALID,120.984,VALID,198.121,VALID,19.8408,VALID,160,VALID,1.05391,
2016-12-27, 14:59:04,VALID,916.953,VALID,0,INVALID,120.999,VALID,195.006,VALID,19.9383,VALID,132,VALID,1.11563,
2016-12-27, 15:00:04,VALID,916.92,VALID,0,INVALID,121.311,VALID,201.345,VALID,19.9773,VALID,124,VALID,1.18047,
2016-12-27, 15:01:04,VALID,916.91,VALID,0,INVALID,121.433,VALID,203.279,VALID,20.0358,VALID,141,VALID,0.967188,
2016-12-27, 15:02:04,VALID,916.886,VALID,0,INVALID,121.822,VALID,209.188,VALID,20.0358,VALID,159,VALID,1.37109,
2016-12-27, 15:03:04,VALID,916.882,VALID,0,INVALID,122.158,VALID,212.626,VALID,20.0343,VALID,143,VALID,1.01367,
2016-12-27, 15:04:04,VALID,916.91,VALID,0,INVALID,122.173,VALID,215.742,VALID,20.1529,VALID,136,VALID,0.495703,
2016-12-27, 15:05:04,VALID,916.945,VALID,0,INVALID,122.531,VALID,218.213,VALID,20.2114,VALID,151,VALID,1.34531,
2016-12-27, 15:06:04,VALID,916.969,VALID,0,INVALID,123.118,VALID,220.469,VALID,20.2309,VALID,130,VALID,1.10039,
2016-12-27, 15:07:04,VALID,916.985,VALID,0,INVALID,123.454,VALID,221.329,VALID,20.2879,VALID,116,VALID,0.998438,
2016-12-27, 15:08:04,VALID,916.991,VALID,0,INVALID,123.629,VALID,223.8,VALID,20.3854,VALID,158,VALID,1.09961,
2016-12-27, 15:09:04,VALID,917.006,VALID,0,INVALID,123.903,VALID,224.337,VALID,20.5024,VALID,156,VALID,0.0527344,
2016-12-27, 15:10:04,VALID,917.033,VALID,0,INVALID,124.124,VALID,225.089,VALID,20.678,VALID,111,VALID,0.607422,
2016-12-27, 15:11:04,VALID,917.034,VALID,0,INVALID,124.872,VALID,225.626,VALID,20.7576,VALID,142,VALID,0,
2016-12-27, 15:12:04,VALID,917.081,VALID,0,INVALID,125.779,VALID,230.246,VALID,20.717,VALID,152,VALID,0,
2016-12-27, 15:13:04,VALID,917.105,VALID,0,INVALID,126.206,VALID,237.66,VALID,20.834,VALID,152,VALID,0,
2016-12-27, 15:14:04,VALID,917.084,VALID,0,INVALID,126.389,VALID,243.999,VALID,21.0291,VALID,152,VALID,0,
2016-12-27, 15:15:04,VALID,917.094,VALID,0,INVALID,126.922,VALID,245.288,VALID,21.1461,VALID,152,VALID,0,
2016-12-27, 15:16:04,VALID,917.136,VALID,0,INVALID,127.502,VALID,249.156,VALID,21.3022,VALID,92,VALID,0,
2016-12-27, 15:17:04,VALID,917.146,VALID,0,INVALID,127.883,VALID,251.627,VALID,21.4583,VALID,92,VALID,0,
2016-12-27, 15:18:04,VALID,917.18,VALID,0,INVALID,127.7,VALID,256.892,VALID,21.5168,VALID,145,VALID,0,
2016-12-27, 15:19:04,VALID,917.207,VALID,0,INVALID,126.29,VALID,256.032,VALID,21.5559,VALID,159,VALID,0,
2016-12-27, 15:20:04,VALID,917.2,VALID,0,INVALID,125.077,VALID,264.305,VALID,21.4583,VALID,225,VALID,0,
2016-12-27, 15:21:04,VALID,917.213,VALID,0,INVALID,125.931,VALID,276.876,VALID,21.3803,VALID,239,VALID,0,
2016-12-27, 15:22:04,VALID,917.243,VALID,0,INVALID,126.373,VALID,281.496,VALID,21.3786,VALID,240,VALID,0,
2016-12-27, 15:23:04,VALID,917.271,VALID,0,INVALID,126.183,VALID,281.603,VALID,21.3998,VALID,239,VALID,0,
2016-12-27, 15:24:04,VALID,917.251,VALID,0,INVALID,125.581,VALID,286.223,VALID,21.3201,VALID,239,VALID,0,
2016-12-27, 15:25:04,VALID,917.293,VALID,0,INVALID,125.39,VALID,284.182,VALID,21.2616,VALID,240,VALID,0,
2016-12-27, 15:26:04,VALID,917.271,VALID,0,INVALID,125.093,VALID,282.248,VALID,21.2031,VALID,257,VALID,0,
2016-12-27, 15:27:04,VALID,917.279,VALID,0,INVALID,125.588,VALID,284.289,VALID,21.1836,VALID,273,VALID,0,
2016-12-27, 15:28:04,VALID,917.268,VALID,0,INVALID,124.864,VALID,282.033,VALID,21.1445,VALID,273,VALID,0,
2016-12-27, 15:29:04,VALID,917.29,VALID,0,INVALID,124.666,VALID,279.992,VALID,21.164,VALID,273,VALID,0,
2016-12-27, 15:30:04,VALID,917.308,VALID,0,INVALID,124.429,VALID,281.281,VALID,21.1819,VALID,273,VALID,0,
2016-12-27, 15:31:04,VALID,917.311,VALID,0,INVALID,124.803,VALID,280.959,VALID,21.3006,VALID,274,VALID,0,
2016-12-27, 15:32:04,VALID,917.332,VALID,0,INVALID,124.658,VALID,282.785,VALID,21.4762,VALID,274,VALID,0,
2016-12-27, 15:33:04,VALID,917.34,VALID,0,INVALID,123.789,VALID,280.744,VALID,21.6696,VALID,274,VALID,0,
2016-12-27, 15:34:04,VALID,917.37,VALID,0,INVALID,114.29,VALID,287.19,VALID,21.9249,VALID,274,VALID,0,
2016-12-27, 15:35:04,VALID,917.378,VALID,0,VALID,101.788,VALID,284.182,VALID,22.1769,VALID,275,VALID,0,
2016-12-27, 15:36:04,VALID,917.398,VALID,0,VALID,100.05,VALID,281.496,VALID,22.3933,VALID,297,VALID,0,
2016-12-27, 15:37:04,VALID,917.395,VALID,0,VALID,95.6662,VALID,274.297,VALID,22.5477,VALID,297,VALID,0,
2016-12-27, 15:38:04,VALID,917.422,VALID,0,VALID,93.9586,VALID,275.479,VALID,22.6647,VALID,297,VALID,0,
2016-12-27, 15:39:04,VALID,917.399,VALID,0,VALID,93.8671,VALID,267.206,VALID,22.8014,VALID,338,VALID,0,
2016-12-27, 15:40:04,VALID,917.4,VALID,0,VALID,94.0348,VALID,256.355,VALID,22.9415,VALID,27,VALID,0,
2016-12-27, 15:41:04,VALID,917.418,VALID,0,VALID,91.1227,VALID,242.924,VALID,22.8616,VALID,43,VALID,0,
2016-12-27, 15:42:04,VALID,917.438,VALID,0,VALID,94.8658,VALID,245.181,VALID,22.725,VALID,47,VALID,0,
2016-12-27, 15:43:04,VALID,917.43,VALID,0,VALID,104,VALID,255.173,VALID,22.5884,VALID,51,VALID,0,
2016-12-27, 15:44:04,VALID,917.467,VALID,0,INVALID,109.373,VALID,247.652,VALID,22.473,VALID,51,VALID,0,
2016-12-27, 15:45:04,VALID,917.447,VALID,0,INVALID,117.721,VALID,248.189,VALID,22.3737,VALID,51,VALID,0,
2016-12-27, 15:46:04,VALID,917.467,VALID,0,INVALID,116.631,VALID,254.528,VALID,22.3933,VALID,51,VALID,0,
2016-12-27, 15:47:04,VALID,917.474,VALID,0,INVALID,119.116,VALID,260.76,VALID,22.4323,VALID,55,VALID,0.285156,
2016-12-27, 15:48:04,VALID,917.489,VALID,0,INVALID,111.866,VALID,261.834,VALID,22.4518,VALID,60,VALID,0,
2016-12-27, 15:49:04,VALID,917.496,VALID,0,INVALID,118.041,VALID,263.446,VALID,22.5103,VALID,60,VALID,0,
2016-12-27, 15:50:04,VALID,917.531,VALID,0,INVALID,115.22,VALID,272.793,VALID,22.5884,VALID,60,VALID,0,
2016-12-27, 15:51:04,VALID,917.521,VALID,0,INVALID,112.24,VALID,279.669,VALID,22.7038,VALID,57,VALID,0,
2016-12-27, 15:52:04,VALID,917.559,VALID,0,INVALID,109.449,VALID,285.471,VALID,22.8599,VALID,57,VALID,0,
2016-12-27, 15:53:04,VALID,917.583,VALID,0,VALID,103.602,VALID,284.182,VALID,23.0763,VALID,57,VALID,0,
2016-12-27, 15:54:04,VALID,917.565,VALID,0,VALID,91.4505,VALID,273.545,VALID,23.2502,VALID,57,VALID,0,
2016-12-27, 15:55:04,VALID,917.601,VALID,0,VALID,87.8218,VALID,273.653,VALID,23.4472,VALID,57,VALID,0,
2016-12-27, 15:56:04,VALID,917.614,VALID,0,VALID,86.9603,VALID,269.248,VALID,23.6247,VALID,57,VALID,0,
2016-12-27, 15:57:04,VALID,917.66,VALID,0,VALID,86.4953,VALID,272.578,VALID,23.7187,VALID,84,VALID,0,
2016-12-27, 15:58:04,VALID,917.662,VALID,0,VALID,84.2692,VALID,270.107,VALID,23.7205,VALID,137,VALID,0,
2016-12-27, 15:59:04,VALID,917.685,VALID,0,VALID,83.7127,VALID,274.942,VALID,23.7578,VALID,137,VALID,0,
2016-12-27, 16:00:04,VALID,917.683,VALID,0,VALID,83.6746,VALID,267.743,VALID,23.7382,VALID,148,VALID,0,
2016-12-27, 16:01:04,VALID,917.689,VALID,0,VALID,84.902,VALID,263.768,VALID,23.6211,VALID,149,VALID,0,
2016-12-27, 16:02:04,VALID,917.702,VALID,0,VALID,83.3239,VALID,267.851,VALID,23.4845,VALID,148,VALID,0,
2016-12-27, 16:03:04,VALID,917.728,VALID,0,VALID,84.6809,VALID,265.057,VALID,23.2893,VALID,148,VALID,0,
2016-12-27, 16:04:04,VALID,917.734,VALID,0,VALID,86.1598,VALID,273.653,VALID,23.1527,VALID,150,VALID,0,
2016-12-27, 16:05:04,VALID,917.751,VALID,0,VALID,86.2056,VALID,276.768,VALID,23.0551,VALID,150,VALID,0,
2016-12-27, 16:06:04,VALID,917.743,VALID,0,VALID,87.4863,VALID,271.826,VALID,23.0941,VALID,150,VALID,0,
2016-12-27, 16:07:04,VALID,917.744,VALID,0,VALID,85.8778,VALID,270.644,VALID,23.016,VALID,150,VALID,0,
2016-12-27, 16:08:04,VALID,917.748,VALID,0,VALID,87.9209,VALID,270.859,VALID,22.8989,VALID,151,VALID,0,
2016-12-27, 16:09:04,VALID,917.757,VALID,0,VALID,88.5612,VALID,281.388,VALID,22.8209,VALID,149,VALID,0,
2016-12-27, 16:10:04,VALID,917.731,VALID,0,VALID,93.1886,VALID,285.793,VALID,22.8014,VALID,146,VALID,0,
2016-12-27, 16:11:04,VALID,917.758,VALID,0,VALID,93.1276,VALID,289.339,VALID,22.8812,VALID,140,VALID,0,
2016-12-27, 16:12:04,VALID,917.754,VALID,0,VALID,94.5837,VALID,293.099,VALID,22.9202,VALID,158,VALID,0,
2016-12-27, 16:13:04,VALID,917.784,VALID,0,VALID,92.1366,VALID,296.108,VALID,22.8226,VALID,154,VALID,0,
2016-12-27, 16:14:04,VALID,917.789,VALID,0,VALID,95.4833,VALID,300.405,VALID,22.6843,VALID,170,VALID,0.792578,
2016-12-27, 16:15:04,VALID,917.818,VALID,0,VALID,99.8744,VALID,305.133,VALID,22.7836,VALID,161,VALID,0.270312,
2016-12-27, 16:16:04,VALID,917.831,VALID,0,VALID,92.6779,VALID,304.596,VALID,22.725,VALID,157,VALID,0,
2016-12-27, 16:17:04,VALID,917.846,VALID,0,VALID,94.9039,VALID,299.653,VALID,22.6647,VALID,169,VALID,0,
2016-12-27, 16:18:04,VALID,917.816,VALID,0,VALID,92.9676,VALID,297.505,VALID,22.7445,VALID,165,VALID,0,
2016-12-27, 16:19:04,VALID,917.799,VALID,0,VALID,87.959,VALID,298.686,VALID,22.7836,VALID,159,VALID,0,
2016-12-27, 16:20:04,VALID,917.803,VALID,0,VALID,90.2765,VALID,295.463,VALID,22.8599,VALID,158,VALID,0,
2016-12-27, 16:21:04,VALID,917.751,VALID,0,VALID,91.3895,VALID,297.505,VALID,23.016,VALID,145,VALID,0,
2016-12-27, 16:22:04,VALID,917.776,VALID,0,VALID,89.6361,VALID,299.976,VALID,23.1331,VALID,164,VALID,0,
2016-12-27, 16:23:04,VALID,917.756,VALID,0,VALID,88.4774,VALID,299.976,VALID,23.016,VALID,161,VALID,0,
2016-12-27, 16:24:04,VALID,917.754,VALID,0,VALID,88.3401,VALID,301.587,VALID,22.9983,VALID,161,VALID,0,
2016-12-27, 16:25:04,VALID,917.781,VALID,0,VALID,84.1701,VALID,305.563,VALID,22.977,VALID,152,VALID,0,
2016-12-27, 16:26:04,VALID,917.767,VALID,0,VALID,85.8244,VALID,310.29,VALID,23.0941,VALID,140,VALID,0,
2016-12-27, 16:27:04,VALID,917.817,VALID,0,VALID,88.0657,VALID,314.05,VALID,23.2307,VALID,141,VALID,0,
2016-12-27, 16:28:04,VALID,917.792,VALID,0,VALID,83.1486,VALID,318.026,VALID,23.3283,VALID,155,VALID,0,
2016-12-27, 16:29:04,VALID,917.814,VALID,0,VALID,83.1638,VALID,321.034,VALID,23.4454,VALID,168,VALID,0,
2016-12-27, 16:30:04,VALID,917.785,VALID,0,VALID,84.658,VALID,324.902,VALID,23.5217,VALID,164,VALID,0,
2016-12-27, 16:31:04,VALID,917.782,VALID,0,VALID,83.3239,VALID,330.704,VALID,23.4046,VALID,165,VALID,0,
2016-12-27, 16:32:04,VALID,917.751,VALID,0,VALID,85.0392,VALID,336.935,VALID,23.2875,VALID,163,VALID,0,
2016-12-27, 16:33:04,VALID,917.752,VALID,0,VALID,85.1536,VALID,345.101,VALID,23.3283,VALID,162,VALID,0,
2016-12-27, 16:34:04,VALID,917.74,VALID,0,VALID,81.5477,VALID,347.68,VALID,23.4454,VALID,210,VALID,0,
2016-12-27, 16:35:04,VALID,917.754,VALID,0,VALID,81.3876,VALID,355.953,VALID,23.5821,VALID,160,VALID,0,
2016-12-27, 16:36:05,VALID,917.753,VALID,0,VALID,78.8642,VALID,370.135,VALID,23.5839,VALID,143,VALID,0,
2016-12-27, 16:37:04,VALID,917.777,VALID,0,VALID,77.5225,VALID,385.821,VALID,23.6034,VALID,145,VALID,0,
2016-12-27, 16:38:04,VALID,917.75,VALID,0,VALID,77.6979,VALID,415.153,VALID,23.6815,VALID,128,VALID,0,
2016-12-27, 16:39:04,VALID,917.741,VALID,0,VALID,76.5086,VALID,435.889,VALID,23.7205,VALID,158,VALID,0,
2016-12-27, 16:40:04,VALID,917.746,VALID,0,VALID,78.7956,VALID,449.641,VALID,23.8358,VALID,148,VALID,0,
2016-12-27, 16:41:04,VALID,917.746,VALID,0,VALID,78.1858,VALID,468.336,VALID,23.9512,VALID,196,VALID,0,
2016-12-27, 16:42:04,VALID,917.74,VALID,0,VALID,78.2544,VALID,481.014,VALID,24.1269,VALID,111,VALID,0,
2016-12-27, 16:43:04,VALID,917.761,VALID,0,VALID,73.4669,VALID,486.494,VALID,24.2263,VALID,140,VALID,0,
2016-12-27, 16:44:04,VALID,917.734,VALID,0,VALID,74.374,VALID,493.907,VALID,24.3221,VALID,97,VALID,0,
2016-12-27, 16:45:04,VALID,917.746,VALID,0,VALID,74.9611,VALID,491.973,VALID,24.4801,VALID,97,VALID,0,
2016-12-27, 16:46:04,VALID,917.731,VALID,0,VALID,73.2382,VALID,481.551,VALID,24.6559,VALID,111,VALID,0,
2016-12-27, 16:47:04,VALID,917.743,VALID,0,VALID,73.909,VALID,487.998,VALID,24.7126,VALID,153,VALID,0,
2016-12-27, 16:48:04,VALID,917.761,VALID,0,VALID,73.4592,VALID,472.956,VALID,24.8688,VALID,192,VALID,0.0339844,
2016-12-27, 16:49:04,VALID,917.797,VALID,0,VALID,71.7516,VALID,476.072,VALID,24.9878,VALID,219,VALID,0,
2016-12-27, 16:50:04,VALID,917.808,VALID,0,VALID,70.6843,VALID,500.353,VALID,25.0445,VALID,220,VALID,0,
2016-12-27, 16:51:04,VALID,917.802,VALID,0,VALID,70.8139,VALID,420.417,VALID,25.2007,VALID,201,VALID,0,
2016-12-27, 16:52:04,VALID,917.795,VALID,0,VALID,69.8762,VALID,487.461,VALID,25.2222,VALID,176,VALID,0,
2016-12-27, 16:53:04,VALID,917.793,VALID,0,VALID,69.9677,VALID,529.47,VALID,25.3198,VALID,176,VALID,0,
2016-12-27, 16:54:04,VALID,917.797,VALID,0,VALID,69.0758,VALID,497.775,VALID,25.2984,VALID,165,VALID,0,
2016-12-27, 16:55:04,VALID,917.776,VALID,0,VALID,70.0744,VALID,482.303,VALID,25.2788,VALID,156,VALID,0,
2016-12-27, 16:56:04,VALID,917.772,VALID,0,VALID,72.1251,VALID,529.47,VALID,25.2984,VALID,116,VALID,0,
2016-12-27, 16:57:04,VALID,917.79,VALID,0,VALID,70.6767,VALID,534.52,VALID,25.4741,VALID,115,VALID,0,
2016-12-27, 16:58:04,VALID,917.815,VALID,0,VALID,69.8839,VALID,542.148,VALID,25.6499,VALID,78,VALID,0,
2016-12-27, 16:59:04,VALID,917.791,VALID,0,VALID,70.2727,VALID,526.354,VALID,25.7085,VALID,72,VALID,0,
2016-12-27, 17:00:04,VALID,917.823,VALID,0,VALID,66.4305,VALID,520.015,VALID,25.7671,VALID,246,VALID,0,
2016-12-27, 17:01:04,VALID,917.801,VALID,0,VALID,69.8076,VALID,532.586,VALID,25.396,VALID,244,VALID,0,
2016-12-27, 17:02:04,VALID,917.808,VALID,0,VALID,71.0579,VALID,537.743,VALID,25.064,VALID,261,VALID,0,
2016-12-27, 17:03:04,VALID,917.813,VALID,0,VALID,74.6409,VALID,584.158,VALID,24.9859,VALID,246,VALID,0,
2016-12-27, 17:04:04,VALID,917.8,VALID,0,VALID,71.8354,VALID,601.348,VALID,24.8669,VALID,252,VALID,0,
2016-12-27, 17:05:04,VALID,917.805,VALID,0,VALID,71.8354,VALID,599.629,VALID,24.6345,VALID,253,VALID,1.24727,
2016-12-27, 17:06:04,VALID,917.825,VALID,0,VALID,73.4592,VALID,609.621,VALID,24.5155,VALID,222,VALID,0,
2016-12-27, 17:07:04,VALID,917.873,VALID,0,VALID,73.3525,VALID,603.712,VALID,24.6345,VALID,287,VALID,0.278125,
2016-12-27, 17:08:04,VALID,917.863,VALID,0,VALID,72.8112,VALID,613.704,VALID,24.5954,VALID,261,VALID,0.404687,
2016-12-27, 17:09:04,VALID,917.875,VALID,0,VALID,72.6435,VALID,613.274,VALID,24.4374,VALID,254,VALID,0.0417969,
2016-12-27, 17:10:04,VALID,917.864,VALID,0,VALID,71.6677,VALID,627.027,VALID,24.3611,VALID,258,VALID,0.0609375,
2016-12-27, 17:11:04,VALID,917.841,VALID,0,VALID,74.214,VALID,616.068,VALID,24.4178,VALID,269,VALID,0,
2016-12-27, 17:12:04,VALID,917.828,VALID,0,VALID,72.979,VALID,629.498,VALID,24.6345,VALID,271,VALID,0,
2016-12-27, 17:13:04,VALID,917.862,VALID,0,VALID,72.1023,VALID,635.085,VALID,24.7126,VALID,257,VALID,0,
2016-12-27, 17:14:04,VALID,917.821,VALID,0,VALID,70.9283,VALID,604.786,VALID,24.9078,VALID,304,VALID,0,
2016-12-27, 17:15:04,VALID,917.804,VALID,0,VALID,70.4175,VALID,608.762,VALID,25.1031,VALID,242,VALID,0,
2016-12-27, 17:16:04,VALID,917.801,VALID,0,VALID,68.2753,VALID,583.405,VALID,25.2769,VALID,177,VALID,0,
2016-12-27, 17:17:04,VALID,917.798,VALID,0,VALID,70.0592,VALID,592.216,VALID,25.3746,VALID,182,VALID,0,
2016-12-27, 17:18:04,VALID,917.811,VALID,0,VALID,66.8726,VALID,583.298,VALID,25.4527,VALID,301,VALID,0,
2016-12-27, 17:19:04,VALID,917.783,VALID,0,VALID,67.7264,VALID,604.142,VALID,25.4898,VALID,301,VALID,0,
2016-12-27, 17:20:04,VALID,917.782,VALID,0,VALID,67.7874,VALID,573.736,VALID,25.6284,VALID,200,VALID,0,
2016-12-27, 17:21:04,VALID,917.782,VALID,0,VALID,67.3681,VALID,581.042,VALID,25.648,VALID,225,VALID,0,
2016-12-27, 17:22:04,VALID,917.767,VALID,0,VALID,67.6959,VALID,588.778,VALID,25.6284,VALID,245,VALID,0,
2016-12-27, 17:23:04,VALID,917.804,VALID,0,VALID,67.0861,VALID,591.571,VALID,25.648,VALID,184,VALID,0,
2016-12-27, 17:24:04,VALID,917.795,VALID,0,VALID,67.5206,VALID,568.256,VALID,25.7456,VALID,171,VALID,0,
2016-12-27, 17:25:04,VALID,917.78,VALID,0,VALID,66.095,VALID,549.239,VALID,25.8452,VALID,227,VALID,0,
2016-12-27, 17:26:04,VALID,917.779,VALID,0,VALID,64.8829,VALID,593.505,VALID,25.8452,VALID,224,VALID,0,
2016-12-27, 17:27:04,VALID,917.737,VALID,0,VALID,66.3695,VALID,608.117,VALID,25.8433,VALID,195,VALID,0,
2016-12-27, 17:28:04,VALID,917.744,VALID,0,VALID,64.1282,VALID,595.117,VALID,25.7261,VALID,264,VALID,0,
2016-12-27, 17:29:04,VALID,917.686,VALID,0,VALID,65.9883,VALID,568.901,VALID,25.6304,VALID,284,VALID,0,
2016-12-27, 17:30:04,VALID,917.717,VALID,0,VALID,67.0174,VALID,569.975,VALID,25.6694,VALID,213,VALID,0,
2016-12-27, 17:31:04,VALID,917.686,VALID,0,VALID,68.1381,VALID,586.521,VALID,25.8452,VALID,231,VALID,0,
2016-12-27, 17:32:04,VALID,917.677,VALID,0,VALID,66.621,VALID,600.489,VALID,26.0015,VALID,245,VALID,0,
2016-12-27, 17:33:04,VALID,917.706,VALID,0,VALID,65.2641,VALID,631.647,VALID,26.0015,VALID,243,VALID,0,
2016-12-27, 17:34:04,VALID,917.692,VALID,0,VALID,68.0237,VALID,640.672,VALID,25.8081,VALID,251,VALID,0,
2016-12-27, 17:35:04,VALID,917.675,VALID,0,VALID,63.0457,VALID,641.746,VALID,25.6694,VALID,269,VALID,0,
2016-12-27, 17:36:04,VALID,917.678,VALID,0,VALID,64.1968,VALID,631.324,VALID,25.728,VALID,254,VALID,0,
2016-12-27, 17:37:04,VALID,917.673,VALID,0,VALID,65.8358,VALID,617.357,VALID,25.728,VALID,245,VALID,0,
2016-12-27, 17:38:04,VALID,917.654,VALID,0,VALID,63.6708,VALID,628.531,VALID,25.6499,VALID,240,VALID,0,
2016-12-27, 17:39:04,VALID,917.632,VALID,0,VALID,65.4775,VALID,646.796,VALID,25.5132,VALID,251,VALID,0,
2016-12-27, 17:40:04,VALID,917.634,VALID,0,VALID,66.7049,VALID,644.969,VALID,25.4351,VALID,281,VALID,0,
2016-12-27, 17:41:04,VALID,917.594,VALID,0,VALID,67.9323,VALID,619.613,VALID,25.4351,VALID,274,VALID,0,
2016-12-27, 17:42:04,VALID,917.593,VALID,0,VALID,64.8372,VALID,595.761,VALID,25.3003,VALID,259,VALID,0,
2016-12-27, 17:43:04,VALID,917.565,VALID,0,VALID,67.0174,VALID,586.521,VALID,25.1812,VALID,254,VALID,0,
2016-12-27, 17:44:04,VALID,917.546,VALID,0,VALID,69.335,VALID,570.19,VALID,25.1793,VALID,239,VALID,0,
2016-12-27, 17:45:04,VALID,917.561,VALID,0,VALID,62.0394,VALID,582.438,VALID,25.1793,VALID,249,VALID,0,
2016-12-27, 17:46:04,VALID,917.543,VALID,0,VALID,64.3264,VALID,561.273,VALID,25.1988,VALID,241,VALID,0,
2016-12-27, 17:47:04,VALID,917.569,VALID,0,VALID,62.4891,VALID,560.843,VALID,25.2593,VALID,240,VALID,0,
2016-12-27, 17:48:04,VALID,917.516,VALID,0,VALID,62.634,VALID,592.323,VALID,25.3355,VALID,230,VALID,0,
2016-12-27, 17:49:04,VALID,917.528,VALID,0,VALID,63.0457,VALID,648.515,VALID,25.5523,VALID,237,VALID,0,
2016-12-27, 17:50:04,VALID,917.456,VALID,0,VALID,63.6327,VALID,658.722,VALID,25.5503,VALID,300,VALID,0,
2016-12-27, 17:51:04,VALID,917.428,VALID,0,VALID,63.2362,VALID,632.399,VALID,25.7085,VALID,243,VALID,0,
2016-12-27, 17:52:04,VALID,917.451,VALID,0,VALID,62.6569,VALID,620.258,VALID,25.7456,VALID,241,VALID,0,
2016-12-27, 17:53:04,VALID,917.404,VALID,0,VALID,64.6847,VALID,625.522,VALID,25.8628,VALID,228,VALID,0,
2016-12-27, 17:54:04,VALID,917.419,VALID,0,VALID,64.2654,VALID,624.126,VALID,26.1167,VALID,253,VALID,0,
2016-12-27, 17:55:04,VALID,917.389,VALID,0,VALID,64.1282,VALID,618.754,VALID,26.019,VALID,224,VALID,0.0195313,
2016-12-27, 17:56:04,VALID,917.38,VALID,0,VALID,66.1179,VALID,631.217,VALID,26.019,VALID,281,VALID,0,
2016-12-27, 17:57:04,VALID,917.398,VALID,0,VALID,65.5766,VALID,664.953,VALID,26.019,VALID,217,VALID,0.44375,
2016-12-27, 17:58:04,VALID,917.35,VALID,0,VALID,66.5677,VALID,631.861,VALID,26.0386,VALID,207,VALID,0,
2016-12-27, 17:59:04,VALID,917.329,VALID,0,VALID,67.2233,VALID,680.747,VALID,26.1753,VALID,260,VALID,0,
2016-12-27, 18:00:04,VALID,917.312,VALID,0,VALID,70.0973,VALID,732.534,VALID,26.3316,VALID,289,VALID,0,
2016-12-27, 18:01:04,VALID,917.319,VALID,0,VALID,70.2117,VALID,740.162,VALID,26.4703,VALID,262,VALID,0,
2016-12-27, 18:02:04,VALID,917.312,VALID,0,VALID,66.4152,VALID,757.46,VALID,26.4683,VALID,234,VALID,0,
2016-12-27, 18:03:04,VALID,917.295,VALID,0,VALID,66.7887,VALID,807.42,VALID,26.4488,VALID,246,VALID,0,
2016-12-27, 18:04:04,VALID,917.297,VALID,0,VALID,67.3986,VALID,778.626,VALID,26.6441,VALID,283,VALID,0.0992187,
2016-12-27, 18:05:04,VALID,917.282,VALID,0,VALID,64.334,VALID,732.211,VALID,26.5074,VALID,254,VALID,1.01953,
2016-12-27, 18:06:04,VALID,917.28,VALID,0,VALID,67.1928,VALID,730.278,VALID,26.3511,VALID,145,VALID,0.261719,
2016-12-27, 18:07:04,VALID,917.246,VALID,0,VALID,67.795,VALID,705.781,VALID,26.1948,VALID,216,VALID,1.20352,
2016-12-27, 18:08:04,VALID,917.238,VALID,0,VALID,68.443,VALID,637.771,VALID,26.3316,VALID,233,VALID,0,
2016-12-27, 18:09:04,VALID,917.251,VALID,0,VALID,67.2766,VALID,698.905,VALID,26.4878,VALID,252,VALID,0.89375,
2016-12-27, 18:10:04,VALID,917.24,VALID,0,VALID,66.5982,VALID,710.293,VALID,26.5464,VALID,333,VALID,0,
2016-12-27, 18:11:04,VALID,917.24,VALID,0,VALID,67.147,VALID,735.435,VALID,26.5855,VALID,243,VALID,0,
2016-12-27, 18:12:04,VALID,917.215,VALID,0,VALID,65.973,VALID,714.699,VALID,26.4683,VALID,255,VALID,0.953516,
2016-12-27, 18:13:04,VALID,917.19,VALID,0,VALID,67.4291,VALID,716.203,VALID,26.1928,VALID,277,VALID,0.275,
2016-12-27, 18:14:04,VALID,917.193,VALID,0,VALID,65.8663,VALID,680.855,VALID,26.1538,VALID,257,VALID,1.63125,
2016-12-27, 18:15:04,VALID,917.145,VALID,0,VALID,67.1775,VALID,657.218,VALID,25.9604,VALID,308,VALID,0.108984,
2016-12-27, 18:16:04,VALID,917.135,VALID,0,VALID,67.4596,VALID,670.97,VALID,26.0581,VALID,254,VALID,0.101953,
2016-12-27, 18:17:04,VALID,917.077,VALID,0,VALID,66.9717,VALID,669.573,VALID,26.0561,VALID,202,VALID,0,
2016-12-27, 18:18:04,VALID,917.069,VALID,0,VALID,65.5538,VALID,652.383,VALID,26.2339,VALID,318,VALID,0.65,
2016-12-27, 18:19:04,VALID,917.086,VALID,0,VALID,68.1152,VALID,663.557,VALID,26.1558,VALID,336,VALID,0,
2016-12-27, 18:20:04,VALID,917.054,VALID,0,VALID,68.8928,VALID,727.699,VALID,26.2319,VALID,278,VALID,0.133984,
2016-12-27, 18:21:04,VALID,917.064,VALID,0,VALID,67.6349,VALID,750.154,VALID,26.4292,VALID,213,VALID,0.474219,
2016-12-27, 18:22:04,VALID,917.024,VALID,0,VALID,67.7493,VALID,751.658,VALID,26.603,VALID,255,VALID,0,